Regional Weather Roundup
Issued by NWS

Home | Current Version | Previous Version | Graphics & Text | Print | Product List | Glossary Off
Versions: 1 2 3 4 5 6 7 8 9 10 11 12 13 14 15 16 17 18 19 20 21 22 23 24 25 26 27 28 29 30 31 32 33 34 35 36 37 38 39 40 41 42 43 44 45 46 47 48 49 50

000
ASUS43 KFSD 201010
RWRSD

WEATHER ROUNDUP FOR SOUTH DAKOTA
NATIONAL WEATHER SERVICE SIOUX FALLS SD
500 AM CDT SAT SEP 20 2014

NOTE: "FAIR" INDICATES FEW OR NO CLOUDS BELOW 12,000 FEET WITH NO
SIGNIFICANT WEATHER AND/OR OBSTRUCTIONS TO VISIBILITY.


SDZ001>005-009-010-012>017-201100-
NORTHWEST AND NORTH CENTRAL SOUTH DAKOTA

CITY           SKY/WX    TMP DP  RH WIND       PRES   REMARKS
BUFFALO          N/A     54  47  77 W10       29.92S
FAITH            N/A     58  48  69 W12       29.94S
MOBRIDGE       CLEAR     54  52  93 N5        29.86S
$$

SDZ012>016-024>037-041>051-057-063-072>074-201100-
SOUTHWEST AND SOUTH CENTRAL SOUTH DAKOTA

CITY           SKY/WX    TMP DP  RH WIND       PRES   REMARKS
RAPID CTY ARPT CLEAR     56  46  69 NW8       30.01R
PIERRE         PTCLDY    59  53  80 W9        29.88S
CUSTER         CLEAR     54  39  57 CALM      30.14R
ELLSWORTH AFB  PTCLDY    55  47  74 NW8       30.01R
PHILIP         PTCLDY    58  52  80 W10       29.96R
PINE RIDGE     PTCLDY    50  47  89 CALM      30.03S
WINNER         LGT RAIN  63  56  78 SW8       29.92S
$$

SDZ004>011-016>023-039-040-201100-
NORTHEAST SOUTH DAKOTA

CITY           SKY/WX    TMP DP  RH WIND       PRES   REMARKS
ABERDEEN       CLEAR     55  53  93 NW6       29.85R
WATERTOWN      PTCLDY    58  54  86 NW6       29.84R
SISSETON         N/A     58  57  97 NW8       29.80R
$$

SDZ017-020-022-023-036>040-048>070-201100-
SOUTHEAST SOUTH DAKOTA

CITY           SKY/WX    TMP DP  RH WIND       PRES   REMARKS
SIOUX FALLS    MOCLDY    64  55  72 NW9       29.83R
HURON          PTCLDY    55  51  86 NW6       29.86R
CHAMBERLAIN    CLOUDY    62  55  77 NW7       29.89F
MITCHELL       LGT RAIN  63  58  83 W5        29.86S
YANKTON        CLEAR     64  57  77 SW5       29.85R
$$

ABBREVIATIONS USED IN REMARKS
   TC - TEMPERATURE IN CELSIUS
  WCI - WIND CHILL INDEX
   HX - HEAT INDEX
  VSB - VISIBILITY




USA.gov is the U.S. government's official web portal to all federal, state and local government web resources and services.